Location: Caltech
(34.1382°N, 118.1253°W)
Time: 07:38:55
(UTC-07:00)

Cosmos 2219 - Visible Passes

Search period start: 21 July 2017 00:00
Search period end: 31 July 2017 00:00
Orbit: 833 x 861 km, 71.1° (Epoch: 20 July)

Date Brightness Start Highest point End Pass type
(mag) Time Alt. Az. Time Alt. Az. Time Alt. Az.
21 Jul 4.9 00:57:50 10° NW 01:00:35 27° NW 01:00:35 27° NW visible
21 Jul 4.8 23:00:59 10° N 23:05:20 23° ENE 23:05:20 23° ENE visible
22 Jul 4.8 00:44:20 10° NW 00:47:15 28° NW 00:47:15 28° NW visible
22 Jul 4.8 22:47:33 10° N 22:51:59 22° ENE 22:52:02 22° ENE visible
23 Jul 4.7 00:30:52 10° NW 00:33:56 30° NW 00:33:56 30° NW visible
23 Jul 4.8 22:34:07 10° N 22:38:29 22° ENE 22:38:45 22° ENE visible
24 Jul 4.6 00:17:22 10° NNW 00:20:40 32° NW 00:20:40 32° NW visible
24 Jul 4.8 22:20:41 10° N 22:25:01 21° ENE 22:25:31 21° ENE visible
25 Jul 4.5 00:03:52 10° NNW 00:07:25 35° WNW 00:07:25 35° WNW visible
25 Jul 4.8 22:07:15 10° N 22:11:30 21° ENE 22:12:18 20° ENE visible
25 Jul 4.4 23:50:23 10° NNW 23:54:13 38° WNW 23:54:13 38° WNW visible
26 Jul 4.8 21:53:49 10° N 21:58:01 20° ENE 21:59:07 19° ENE visible
26 Jul 4.2 23:36:53 10° NNW 23:41:02 41° WNW 23:41:02 41° WNW visible
27 Jul 4.8 21:40:24 10° NNE 21:44:32 20° ENE 21:45:59 18° ENE visible
27 Jul 4.0 23:23:24 10° NNW 23:27:54 46° WNW 23:27:54 46° WNW visible
28 Jul 4.8 21:26:58 10° NNE 21:31:03 19° ENE 21:32:53 17° E visible
28 Jul 3.8 23:09:55 10° NNW 23:14:48 50° W 23:14:48 50° W visible
29 Jul 4.9 21:13:33 10° NNE 21:17:33 19° ENE 21:19:49 15° E visible
29 Jul 3.7 22:56:26 10° NNW 23:01:44 54° W 23:01:44 54° W visible
30 Jul 4.9 21:00:08 10° NNE 21:04:04 19° ENE 21:06:47 14° E visible
30 Jul 3.5 22:42:56 10° NNW 22:48:34 56° WSW 22:48:42 56° WSW visible
